Location: Unspecified
(47.6577°N, 23.5639°E)
Time: 18:19:27
(UTC+02:00)

ISS - Pass Details

Date: 16 February 2017
Orbit: 399 x 408 km, 51.6° (Epoch: 24 February)

Event Time Altitude Azimuth Distance (km) Brightness Sun altitude
Rises 18:17:35 0° 290° (WNW) 2,328 1.6 -5.2°
Reaches altitude 10° 18:19:48 10° 280° (W) 1,463 0.9 -5.6°
Maximum altitude 18:22:43 30° 217° (SW) 755 -1.4 -6.1°
Drops below altitude 10° 18:25:37 10° 154° (SSE) 1,450 -0.7 -6.6°
Sets 18:27:49 0° 143° (SE) 2,303 0.2 -6.9°
